TimeCDT,TemperatureF,Dew PointF,Humidity,Sea Level PressureIn,VisibilityMPH,Wind Direction,Wind SpeedMPH,Gust SpeedMPH,PrecipitationIn,Events,Conditions,WindDirDegrees,DateUTC
12:13 AM,49.6,48.6,96,30.33,10.0,NNE,3.5,-,N/A,,Clear,20,2013-09-16 05:13:00
12:33 AM,49.1,48.2,97,30.34,10.0,NNE,4.6,-,N/A,,Clear,30,2013-09-16 05:33:00
12:53 AM,48.9,48.2,97,30.34,10.0,NNE,4.6,-,N/A,,Clear,20,2013-09-16 05:53:00
1:12 AM,46.8,46.2,98,30.34,10.0,Calm,Calm,-,N/A,,Clear,0,2013-09-16 06:12:00
1:33 AM,46.4,45.7,97,30.34,10.0,North,3.5,-,N/A,,Scattered Clouds,10,2013-09-16 06:33:00
1:53 AM,47.1,46.9,99,30.34,10.0,NNE,3.5,-,N/A,,Scattered Clouds,30,2013-09-16 06:53:00
2:13 AM,46.8,46.6,99,30.35,10.0,Calm,Calm,-,N/A,,Clear,0,2013-09-16 07:13:00
2:33 AM,46.2,46.2,100,30.35,7.0,Calm,Calm,-,N/A,,Clear,0,2013-09-16 07:33:00
2:53 AM,45.9,45.7,99,30.36,1.0,Calm,Calm,-,N/A,,Mist,0,2013-09-16 07:53:00
3:13 AM,44.8,44.4,99,30.36,0.2,Calm,Calm,-,N/A,Fog,Fog,0,2013-09-16 08:13:00
3:33 AM,44.8,44.8,100,30.36,0.8,Calm,Calm,-,N/A,,Overcast,0,2013-09-16 08:33:00
3:53 AM,45.7,45.7,100,30.36,0.5,Calm,Calm,-,N/A,Fog,Fog,0,2013-09-16 08:53:00
4:13 AM,45.7,45.7,100,30.36,0.5,Calm,Calm,-,N/A,Fog,Fog,0,2013-09-16 09:13:00
4:33 AM,46.0,46.0,100,30.36,2.5,Calm,Calm,-,N/A,,Overcast,0,2013-09-16 09:33:00
4:53 AM,46.4,46.4,100,30.37,7.0,Calm,Calm,-,N/A,,Overcast,0,2013-09-16 09:53:00
5:13 AM,46.9,46.9,100,30.37,5.0,Calm,Calm,-,N/A,,Overcast,0,2013-09-16 10:13:00
5:33 AM,47.3,47.3,100,30.37,7.0,Calm,Calm,-,N/A,,Overcast,0,2013-09-16 10:33:00
5:53 AM,47.3,47.3,100,30.37,7.0,Calm,Calm,-,N/A,,Overcast,0,2013-09-16 10:53:00
6:12 AM,46.6,46.6,100,30.37,5.0,Calm,Calm,-,N/A,,Overcast,0,2013-09-16 11:12:00
6:33 AM,47.1,47.1,100,30.37,0.8,Calm,Calm,-,N/A,,Overcast,0,2013-09-16 11:33:00
6:53 AM,47.3,47.3,100,30.38,0.2,Calm,Calm,-,N/A,Fog,Fog,0,2013-09-16 11:53:00
7:13 AM,47.1,47.1,100,30.38,0.2,Calm,Calm,-,N/A,Fog,Fog,0,2013-09-16 12:13:00
7:33 AM,46.4,46.4,100,30.39,0.2,Calm,Calm,-,N/A,Fog,Fog,0,2013-09-16 12:33:00
7:53 AM,46.0,46.0,100,30.39,0.2,Calm,Calm,-,N/A,Fog,Fog,0,2013-09-16 12:53:00
8:13 AM,46.8,46.8,100,30.39,0.2,Calm,Calm,-,N/A,Fog,Fog,0,2013-09-16 13:13:00
8:33 AM,46.9,46.9,100,30.38,0.2,ENE,3.5,-,N/A,Fog,Fog,70,2013-09-16 13:33:00
8:53 AM,47.1,47.1,100,30.39,0.2,Calm,Calm,-,N/A,Fog,Fog,0,2013-09-16 13:53:00
9:13 AM,47.5,47.5,100,30.39,0.5,East,3.5,-,N/A,Fog,Fog,80,2013-09-16 14:13:00
9:33 AM,47.3,47.3,100,30.39,1.2,ESE,3.5,-,N/A,,Overcast,110,2013-09-16 14:33:00
9:53 AM,47.8,47.8,100,30.39,5.0,Calm,Calm,-,N/A,,Overcast,0,2013-09-16 14:53:00
10:13 AM,49.6,49.6,100,30.39,10.0,East,3.5,-,N/A,,Scattered Clouds,80,2013-09-16 15:13:00
10:33 AM,51.1,51.1,100,30.39,10.0,Calm,Calm,-,N/A,,Clear,0,2013-09-16 15:33:00
10:53 AM,54.7,51.4,89,30.39,10.0,ESE,5.8,-,N/A,,Clear,120,2013-09-16 15:53:00
11:13 AM,56.7,49.3,76,30.39,10.0,East,3.5,-,N/A,,Clear,90,2013-09-16 16:13:00
11:33 AM,57.4,48.6,72,30.38,10.0,East,3.5,-,N/A,,Scattered Clouds,80,2013-09-16 16:33:00
11:53 AM,58.5,48.0,68,30.38,10.0,SE,5.8,-,N/A,,Clear,140,2013-09-16 16:53:00
12:13 PM,59.4,48.9,68,30.38,10.0,SE,5.8,-,N/A,,Scattered Clouds,140,2013-09-16 17:13:00
12:33 PM,61.2,47.8,62,30.38,10.0,SE,4.6,-,N/A,,Mostly Cloudy,130,2013-09-16 17:33:00
12:53 PM,60.8,47.5,62,30.37,10.0,Calm,Calm,-,N/A,,Scattered Clouds,0,2013-09-16 17:53:00
1:13 PM,62.2,47.7,59,30.36,10.0,South,4.6,-,N/A,,Scattered Clouds,190,2013-09-16 18:13:00
1:33 PM,62.4,47.3,58,30.35,10.0,South,4.6,-,N/A,,Scattered Clouds,180,2013-09-16 18:33:00
1:53 PM,62.8,47.7,58,30.34,10.0,SSE,6.9,-,N/A,,Scattered Clouds,150,2013-09-16 18:53:00
2:12 PM,64.0,48.0,56,30.33,10.0,SSE,9.2,-,N/A,,Scattered Clouds,150,2013-09-16 19:12:00
2:33 PM,62.8,48.0,59,30.32,10.0,ESE,3.5,-,N/A,,Scattered Clouds,110,2013-09-16 19:33:00
2:52 PM,64.8,47.5,53,30.32,10.0,South,4.6,-,N/A,,Mostly Cloudy,180,2013-09-16 19:52:00
3:13 PM,65.3,47.8,53,30.32,10.0,SSE,5.8,-,N/A,,Mostly Cloudy,160,2013-09-16 20:13:00
3:33 PM,66.0,47.1,50,30.30,10.0,SSE,6.9,-,N/A,,Mostly Cloudy,160,2013-09-16 20:33:00
3:53 PM,66.2,47.1,50,30.29,10.0,SSE,9.2,-,N/A,,Scattered Clouds,150,2013-09-16 20:53:00
4:14 PM,66.4,46.4,49,30.28,10.0,SE,10.4,-,N/A,,Scattered Clouds,140,2013-09-16 21:14:00
4:33 PM,66.2,46.9,50,30.27,10.0,SE,5.8,-,N/A,,Clear,130,2013-09-16 21:33:00
4:53 PM,66.4,46.8,49,30.27,10.0,SE,8.1,-,N/A,,Scattered Clouds,140,2013-09-16 21:53:00
5:13 PM,66.4,47.5,51,30.26,10.0,SE,8.1,-,N/A,,Scattered Clouds,130,2013-09-16 22:13:00
5:33 PM,65.8,47.5,52,30.26,10.0,South,5.8,-,N/A,,Scattered Clouds,170,2013-09-16 22:33:00
5:53 PM,65.8,47.7,52,30.25,10.0,SE,9.2,-,N/A,,Scattered Clouds,130,2013-09-16 22:53:00
6:13 PM,65.3,47.8,53,30.24,10.0,SSE,5.8,-,N/A,,Clear,150,2013-09-16 23:13:00
6:33 PM,64.0,48.4,57,30.24,10.0,SSE,6.9,-,N/A,,Clear,150,2013-09-16 23:33:00
6:53 PM,62.4,48.9,61,30.24,10.0,SSE,6.9,-,N/A,,Clear,150,2013-09-16 23:53:00
7:13 PM,60.1,49.6,68,30.23,10.0,SSE,6.9,-,N/A,,Clear,150,2013-09-17 00:13:00
7:33 PM,56.7,51.1,82,30.22,10.0,SE,4.6,-,N/A,,Clear,140,2013-09-17 00:33:00
7:53 PM,54.7,50.7,86,30.22,10.0,SE,4.6,-,N/A,,Clear,140,2013-09-17 00:53:00
8:13 PM,53.1,50.2,90,30.22,10.0,SE,4.6,-,N/A,,Clear,130,2013-09-17 01:13:00
8:32 PM,52.9,50.0,90,30.23,10.0,SSE,3.5,-,N/A,,Clear,150,2013-09-17 01:32:00
8:53 PM,51.6,49.3,92,30.23,10.0,SE,4.6,-,N/A,,Clear,130,2013-09-17 01:53:00
9:13 PM,51.8,49.3,91,30.23,10.0,SE,3.5,-,N/A,,Clear,140,2013-09-17 02:13:00
9:33 PM,50.2,48.6,94,30.23,10.0,SE,4.6,-,N/A,,Clear,130,2013-09-17 02:33:00
9:53 PM,50.5,49.1,95,30.23,10.0,SE,6.9,-,N/A,,Clear,130,2013-09-17 02:53:00
10:13 PM,52.0,50.0,93,30.23,10.0,SE,6.9,-,N/A,,Clear,140,2013-09-17 03:13:00
10:33 PM,51.3,49.8,95,30.23,10.0,SE,6.9,-,N/A,,Clear,140,2013-09-17 03:33:00
10:53 PM,51.6,50.0,94,30.23,10.0,SE,8.1,-,N/A,,Clear,140,2013-09-17 03:53:00
11:13 PM,51.6,50.0,94,30.23,10.0,SE,9.2,-,N/A,,Clear,140,2013-09-17 04:13:00
11:34 PM,51.1,49.6,95,30.23,10.0,SSE,8.1,-,N/A,,Clear,150,2013-09-17 04:34:00
11:53 PM,50.5,49.3,95,30.23,10.0,SSE,8.1,-,N/A,,Clear,150,2013-09-17 04:53:00